Wind_Speed
18 18 18 19 19 20 20 21 22 22 24 24 26 27 28 28 29 30 32 34 35 36 37 38 39 39 40 42 43 44 45 45 44 45 45 45 45 44 45 44 43 42 42 43
18 19 19 20 20 21 21 22 23 23 23 25 26 28 28 29 30 31 32 34 35 36 36 37 37 38 39 40 41 43 43 44 44 45 45 45 45 44 43 43 43 43 43 43
19 20 21 21 21 22 22 22 23 24 24 26 27 28 28 29 30 30 29 31 34 35 36 37 38 39 39 40 41 42 43 44 44 44 44 44 45 44 43 43 43 43 43 44
19 21 21 21 22 24 24 24 24 25 26 27 27 27 27 28 28 29 29 30 31 33 35 37 38 39 39 40 42 42 43 43 43 44 44 44 44 44 43 43 44 44 44 43
20 22 22 22 23 25 26 26 26 26 26 27 27 27 28 28 29 29 30 30 31 32 33 35 37 37 39 41 42 43 42 42 42 43 44 44 43 43 43 43 43 43 43 43
22 23 23 22 23 25 27 27 27 27 27 27 29 29 28 28 29 30 31 30 31 32 33 34 35 36 37 38 39 40 40 40 41 42 43 43 42 43 43 43 42 43 42 42
23 24 22 22 24 25 27 27 28 28 28 28 29 29 29 29 29 30 30 30 31 31 32 33 33 34 34 35 37 38 38 39 39 40 41 41 41 41 42 42 42 42 42 42
24 24 23 22 24 25 26 27 27 27 28 29 29 29 28 28 29 30 30 30 30 31 31 32 32 32 32 34 35 35 36 37 37 38 38 39 40 40 41 41 42 42 42 42
25 25 25 24 25 26 27 27 27 26 26 27 28 28 28 28 29 30 30 31 31 31 31 31 33 33 33 34 34 34 34 35 35 36 37 38 39 39 39 40 40 41 40 41
26 25 26 27 26 27 28 28 28 28 28 28 28 28 29 29 29 29 30 30 31 31 31 31 32 32 32 33 33 33 33 34 34 35 36 37 38 39 39 39 40 40 40 40
27 27 27 28 29 29 29 29 29 29 28 28 28 28 28 29 29 30 30 30 30 30 31 30 30 31 31 31 31 32 32 33 34 34 34 35 36 37 38 38 39 39 39 39
26 27 27 27 28 29 28 27 27 27 27 28 28 28 28 29 30 30 31 31 31 30 30 30 30 30 31 31 32 32 32 33 33 34 34 35 35 36 36 36 37 37 37 37
27 27 27 27 28 29 29 28 27 27 27 28 28 28 29 30 30 31 31 31 31 31 30 31 31 31 31 32 32 33 34 34 34 34 35 35 34 34 34 34 34 34 35 35
27 27 27 27 28 28 28 28 28 28 28 28 28 28 29 29 30 30 30 31 30 30 30 31 31 32 32 32 33 33 33 33 33 33 33 33 33 33 33 33 32 32 33 34
28 28 27 27 27 28 28 28 27 28 28 28 27 28 28 29 29 29 30 30 30 30 30 31 32 32 32 32 32 32 32 32 32 33 33 33 32 32 32 32 32 32 32 33
27 28 27 27 27 27 27 27 27 27 27 27 27 28 28 28 28 28 29 29 29 29 30 30 30 30 30 30 30 31 31 31 32 32 31 31 31 31 31 31 31 31 31 31
26 27 27 27 26 26 26 26 26 26 26 26 26 27 27 28 28 28 27 27 27 27 28 28 29 29 29 29 29 30 30 30 30 31 30 30 29 29 30 30 30 30 30 30
27 27 27 27 26 26 26 25 25 25 25 25 26 26 26 26 26 26 26 26 25 25 26 26 26 26 27 27 28 29 29 29 29 29 29 28 28 28 28 27 27 27 27 27
28 28 28 27 27 26 26 25 25 25 25 25 25 25 25 25 24 24 24 24 25 24 24 24 25 25 25 26 26 26 26 26 26 26 26 26 26 26 25 25 24 24 24 24
28 27 27 26 26 25 26 26 26 26 26 25 25 25 25 25 25 25 24 24 24 24 24 24 24 24 24 24 24 24 24 23 24 24 24 23 23 23 23 23 23 23 23 23
28 27 27 26 26 26 26 27 26 26 25 25 25 25 26 26 25 25 25 25 24 24 24 24 24 23 23 23 23 23 23 22 22 22 21 21 21 21 21 21 21 20 21 21
28 27 27 26 26 26 26 26 25 25 25 25 25 25 25 25 25 25 25 24 24 24 24 24 23 23 23 22 22 22 22 22 21 21 20 21 21 20 20 20 20 20 19 19
27 27 26 26 26 26 26 26 25 25 25 25 25 25 24 24 24 24 25 24 24 23 23 23 23 22 22 22 22 21 21 21 20 20 20 20 20 20 20 20 19 19 19 18
27 27 26 26 26 26 26 26 26 25 25 25 24 24 24 24 24 23 24 24 23 23 22 22 21 21 21 21 21 21 21 20 20 20 19 19 19 19 19 19 18 18 18 18
27 27 27 26 26 26 26 25 25 25 25 24 24 23 23 22 22 22 22 22 22 22 22 22 22 21 21 21 21 21 20 20 19 19 19 19 19 18 18 18 17 17 16 16
26 26 26 26 26 26 26 25 25 25 24 24 24 23 22 22 21 21 21 21 21 21 21 22 22 21 21 21 21 21 20 20 20 20 20 19 19 19 18 17 16 16 16 15
26 25 25 24 24 25 25 25 25 25 24 24 23 22 21 21 21 21 21 20 20 21 21 21 21 21 21 21 21 20 20 20 20 20 20 20 20 19 18 17 17 16 15 15
Wind_Direction
267 267 267 263 260 256 258 259 261 262 264 264 264 262 260 259 258 257 253 252 251 250 250 250 250 251 252 252 253 253 254 254 256 257 259 262 264 265 267 268 269 270 271 272
270 267 267 264 263 261 260 262 263 264 265 264 265 265 263 262 261 260 258 255 253 252 252 252 251 252 253 254 253 254 254 255 257 259 260 262 263 265 266 267 268 269 270 271
275 271 270 264 263 264 263 263 266 265 266 266 267 267 266 264 263 263 259 257 255 254 254 254 254 255 256 257 256 256 257 258 258 259 261 263 264 265 265 266 268 269 270 272
279 275 274 271 266 266 266 264 267 267 266 267 268 266 265 264 264 263 260 259 257 256 256 255 256 255 255 257 257 258 259 260 260 260 262 263 264 265 266 267 268 270 271 273
282 279 277 276 272 268 267 265 266 267 266 266 267 266 266 265 264 262 261 261 260 260 259 258 257 256 256 256 256 257 258 259 261 262 262 263 264 265 266 266 267 270 271 272
282 283 282 278 277 273 271 270 268 268 268 268 266 266 267 267 267 265 263 262 262 262 260 259 258 257 256 256 256 256 257 259 260 262 263 264 265 265 266 267 268 269 270 271
284 284 284 282 281 278 276 277 273 270 268 268 268 268 268 267 267 266 264 263 263 262 261 260 259 258 257 257 257 257 257 259 260 262 263 264 265 266 267 267 268 269 270 270
285 284 284 283 281 280 279 278 276 273 270 269 269 269 268 267 268 268 267 266 264 263 262 260 259 258 259 260 259 259 260 261 262 262 263 264 265 266 267 267 268 269 269 270
286 285 283 283 282 280 279 278 276 274 273 270 269 269 268 268 268 269 268 267 266 265 264 262 260 259 260 261 260 260 262 263 264 265 265 265 266 267 268 268 269 270 270 271
284 284 283 282 282 281 280 279 277 276 275 272 271 270 269 268 268 268 268 267 266 264 263 262 260 261 262 263 263 263 263 264 265 266 266 266 267 268 268 268 269 270 271 271
282 282 281 280 281 282 282 280 278 275 274 273 272 270 268 269 268 269 269 268 267 265 263 261 261 261 262 262 264 264 264 265 266 267 267 268 269 269 270 270 270 271 270 270
282 281 280 280 280 281 282 280 278 276 275 273 271 269 269 269 270 269 269 269 268 268 266 263 262 263 262 263 264 265 266 267 268 269 268 269 269 270 269 269 270 270 270 271
281 281 280 280 280 279 280 279 278 277 276 274 272 270 270 270 270 270 270 270 270 269 267 265 264 265 264 264 266 267 267 268 269 269 270 270 270 269 270 271 271 270 269 270
282 283 282 282 280 278 278 278 278 278 277 275 272 270 270 271 271 271 271 270 269 268 267 267 266 266 265 266 267 267 268 269 269 270 270 269 269 269 270 270 270 270 270 270
281 283 283 283 282 280 279 278 278 278 278 276 274 272 271 272 271 271 271 269 268 266 266 266 266 266 266 266 266 266 266 267 269 270 270 270 270 270 270 270 270 271 271 271
281 282 283 283 282 281 280 280 280 279 278 277 275 273 272 271 271 271 271 270 268 266 265 265 265 265 265 266 266 265 265 267 269 270 270 269 269 269 269 269 270 271 271 271
282 282 282 283 283 282 281 280 280 280 279 278 277 276 275 273 272 271 270 270 268 267 266 265 264 264 265 266 266 267 267 268 269 270 270 269 268 268 269 269 270 270 270 270
284 283 283 283 283 283 282 281 281 281 279 279 279 279 276 275 273 270 268 267 267 267 267 267 265 264 265 266 266 267 268 268 269 269 269 268 268 269 270 271 272 272 271 270
285 283 282 282 283 282 281 279 280 282 282 282 280 279 277 275 274 272 269 267 266 267 267 266 266 266 266 267 266 267 268 269 271 271 268 267 266 267 269 270 271 271 271 270
284 283 283 282 281 280 278 278 279 281 283 283 281 279 277 275 273 271 268 267 267 267 266 266 266 266 267 267 267 267 268 269 270 269 267 265 265 267 267 267 269 270 270 270
284 284 283 282 280 280 279 278 279 281 282 282 282 280 277 274 272 269 268 267 267 267 266 266 266 266 267 267 267 268 269 269 268 267 265 264 263 265 267 267 268 269 269 270
286 284 282 281 281 281 280 279 278 280 281 281 282 281 277 274 271 269 267 268 268 267 266 265 265 266 266 266 267 267 266 265 264 263 262 262 263 264 265 266 269 270 271 271
286 283 281 279 280 280 280 278 277 278 279 280 281 280 278 275 272 269 268 268 268 267 266 265 265 265 264 264 264 263 263 261 260 259 260 262 262 263 266 267 268 269 270 270
284 282 280 280 280 279 280 279 278 277 278 279 279 279 278 276 273 270 268 268 269 267 266 265 264 263 262 261 261 261 259 257 256 257 259 261 261 263 265 267 267 267 267 267
284 282 281 281 280 279 280 281 279 277 277 278 279 279 277 275 273 270 268 267 266 265 264 263 263 262 260 259 259 257 257 256 256 257 258 259 259 260 263 266 267 266 266 265
285 284 282 281 280 280 280 280 279 277 277 278 278 276 274 272 270 269 268 266 264 264 263 263 262 260 259 258 257 255 255 255 256 257 257 257 257 259 261 262 263 264 263 261
286 285 284 282 281 281 281 281 279 277 276 276 275 273 270 269 268 268 268 266 264 264 264 262 260 259 259 257 256 255 255 255 256 257 257 256 256 257 258 258 259 261 261 260
Height
5603 5602 5603 5604 5605 5605 5605 5606 5607 5609 5610 5611 5611 5612 5614 5614 5616 5617 5619 5622 5624 5626 5629 5631 5634 5636 5639 5641 5643 5646 5649 5651 5653 5655 5657 5658 5660 5661 5662 5663 5664 5665 5665 5665
5599 5598 5598 5599 5600 5600 5601 5601 5602 5603 5605 5605 5605 5606 5607 5608 5609 5610 5612 5613 5615 5618 5620 5622 5625 5627 5629 5631 5633 5635 5638 5640 5642 5644 5646 5647 5648 5650 5651 5652 5653 5653 5654 5654
5594 5594 5594 5595 5596 5596 5596 5597 5597 5598 5600 5599 5600 5600 5601 5601 5602 5603 5604 5605 5607 5609 5611 5613 5615 5617 5619 5621 5623 5625 5627 5629 5631 5633 5634 5635 5637 5638 5639 5640 5641 5642 5642 5643
5589 5589 5589 5593 5591 5590 5591 5592 5591 5592 5593 5592 5593 5594 5594 5594 5595 5596 5596 5597 5598 5600 5601 5603 5605 5607 5609 5610 5612 5614 5616 5618 5619 5621 5623 5625 5626 5627 5628 5629 5630 5631 5631 5631
5583 5582 5583 5585 5585 5584 5584 5586 5585 5585 5585 5586 5586 5587 5587 5587 5587 5588 5588 5589 5591 5591 5592 5593 5595 5596 5598 5599 5601 5603 5605 5607 5609 5610 5612 5613 5614 5616 5617 5618 5619 5619 5620 5620
5578 5577 5577 5580 5579 5577 5578 5579 5579 5578 5578 5579 5579 5580 5581 5580 5580 5580 5581 5581 5582 5583 5583 5584 5585 5586 5588 5589 5590 5592 5594 5596 5597 5599 5600 5602 5603 5604 5605 5606 5607 5608 5608 5608
5573 5571 5572 5573 5572 5571 5572 5573 5571 5571 5571 5571 5571 5572 5573 5572 5572 5572 5572 5573 5573 5574 5574 5575 5575 5576 5578 5579 5580 5582 5584 5585 5586 5588 5589 5590 5592 5593 5594 5595 5596 5596 5597 5597
5568 5567 5570 5567 5566 5565 5565 5564 5563 5563 5563 5563 5564 5564 5564 5564 5564 5564 5564 5565 5564 5565 5565 5565 5566 5567 5568 5569 5570 5572 5574 5575 5576 5577 5578 5579 5580 5581 5582 5583 5584 5585 5585 5586
5563 5564 5562 5560 5559 5558 5557 5557 5556 5556 5556 5556 5556 5556 5556 5556 5556 5556 5556 5556 5556 5556 5556 5557 5557 5558 5559 5560 5561 5562 5564 5565 5566 5567 5568 5569 5569 5570 5571 5572 5572 5573 5573 5574
5557 5557 5555 5553 5552 5551 5550 5549 5549 5548 5548 5548 5548 5548 5548 5548 5548 5547 5547 5547 5547 5547 5548 5548 5549 5550 5550 5551 5552 5553 5554 5555 5556 5557 5558 5558 5559 5559 5560 5561 5561 5562 5562 5563
5549 5549 5547 5546 5545 5544 5543 5542 5541 5540 5540 5539 5539 5540 5540 5540 5539 5539 5539 5539 5539 5539 5539 5540 5540 5541 5542 5542 5543 5544 5545 5546 5546 5547 5547 5548 5548 5549 5549 5550 5550 5551 5551 5551
5542 5541 5539 5539 5537 5536 5535 5534 5533 5533 5532 5532 5531 5531 5531 5531 5531 5530 5530 5530 5530 5530 5530 5531 5532 5533 5533 5534 5534 5535 5536 5536 5537 5537 5537 5538 5538 5539 5539 5539 5540 5540 5540 5540
5534 5532 5531 5531 5529 5528 5527 5526 5526 5525 5524 5523 5523 5523 5522 5522 5522 5521 5521 5521 5521 5522 5522 5522 5523 5524 5524 5525 5525 5525 5526 5527 5527 5527 5528 5528 5528 5528 5529 5529 5529 5529 5529 5530
5525 5524 5523 5522 5521 5520 5519 5518 5518 5517 5516 5515 5514 5514 5513 5513 5512 5512 5512 5512 5512 5513 5513 5513 5514 5515 5515 5515 5515 5516 5516 5517 5517 5518 5518 5518 5518 5518 5518 5519 5519 5519 5520 5520
5517 5516 5515 5514 5513 5512 5511 5510 5509 5508 5507 5506 5506 5505 5504 5504 5503 5503 5503 5503 5503 5503 5504 5504 5505 5505 5505 5505 5506 5506 5507 5507 5507 5508 5508 5508 5508 5508 5508 5509 5509 5510 5510 5510
5509 5508 5507 5506 5505 5504 5503 5502 5501 5500 5499 5498 5497 5496 5495 5495 5494 5494 5494 5493 5494 5494 5495 5495 5495 5495 5496 5496 5496 5497 5497 5497 5498 5498 5498 5498 5498 5498 5499 5499 5500 5500 5501 5501
5501 5500 5499 5498 5497 5496 5495 5494 5493 5492 5491 5490 5488 5487 5487 5486 5485 5485 5485 5485 5485 5485 5486 5486 5486 5486 5486 5487 5487 5487 5488 5488 5488 5488 5488 5489 5489 5489 5490 5490 5491 5491 5491 5492
5493 5492 5491 5490 5489 5488 5487 5485 5485 5483 5482 5481 5480 5479 5478 5477 5477 5476 5476 5476 5476 5477 5477 5477 5477 5477 5478 5478 5478 5478 5478 5479 5479 5479 5479 5480 5480 5481 5481 5482 5482 5482 5483 5483
5484 5483 5482 5481 5480 5479 5478 5477 5476 5475 5474 5473 5471 5470 5469 5469 5468 5468 5467 5468 5468 5469 5469 5469 5469 5469 5470 5470 5470 5470 5470 5470 5471 5471 5471 5472 5472 5473 5473 5474 5474 5474 5475 5475
5477 5475 5474 5473 5472 5471 5470 5469 5468 5467 5466 5464 5463 5462 5461 5461 5460 5460 5460 5460 5460 5460 5461 5461 5461 5462 5462 5462 5462 5462 5463 5463 5463 5463 5464 5465 5465 5466 5466 5467 5467 5467 5468 5468
5468 5467 5466 5465 5464 5463 5462 5461 5460 5458 5457 5456 5455 5454 5453 5452 5452 5452 5452 5452 5453 5453 5453 5453 5454 5454 5454 5454 5455 5455 5455 5456 5456 5457 5457 5458 5459 5459 5459 5460 5460 5460 5461 5461
5460 5458 5457 5456 5455 5454 5453 5452 5451 5450 5449 5448 5446 5445 5444 5444 5444 5444 5444 5444 5444 5445 5445 5445 5446 5446 5447 5447 5447 5448 5448 5449 5449 5450 5451 5451 5452 5453 5453 5454 5454 5454 5455 5455
5452 5450 5449 5448 5447 5446 5445 5444 5443 5442 5441 5439 5438 5437 5436 5436 5436 5436 5436 5436 5436 5437 5437 5437 5438 5438 5439 5439 5440 5441 5441 5442 5443 5444 5445 5445 5446 5447 5447 5448 5448 5449 5449 5449
5443 5442 5440 5439 5438 5437 5436 5435 5434 5433 5432 5431 5430 5429 5428 5428 5427 5427 5427 5428 5428 5429 5429 5430 5430 5431 5432 5432 5433 5434 5435 5436 5437 5438 5439 5439 5440 5441 5441 5442 5442 5443 5443 5444
5434 5433 5432 5430 5429 5428 5427 5426 5425 5425 5424 5423 5422 5421 5421 5420 5420 5420 5420 5421 5421 5421 5422 5422 5423 5424 5425 5426 5426 5427 5428 5429 5430 5431 5433 5434 5434 5435 5436 5436 5437 5437 5438 5438
5425 5424 5423 5422 5421 5420 5419 5418 5417 5416 5416 5415 5414 5414 5413 5413 5413 5413 5413 5413 5414 5414 5415 5415 5416 5417 5418 5419 5420 5421 5422 5423 5424 5425 5426 5427 5428 5429 5430 5431 5431 5432 5432 5433
5417 5415 5414 5413 5412 5411 5410 5409 5408 5408 5407 5407 5406 5406 5406 5406 5406 5406 5406 5407 5407 5408 5408 5409 5409 5410 5411 5412 5413 5414 5415 5416 5418 5419 5420 5421 5422 5423 5424 5425 5426 5426 5427 5428